Location: Newark
(42.7133°N, 87.7910°W)
Time: 04:27:58
(UTC+00:00)

SR - Pass Details

Date: 30 October 2019
Orbit: 574 x 882 km, 66.7° (Epoch: 14 November)

Event Time Altitude Azimuth Distance (km) Brightness Sun altitude
Rises 01:52:40 0° 219° (SW) 3,069 ? -34.3°
Reaches altitude 10° 01:54:56 10° 223° (SW) 2,202 ? -34.7°
Enters shadow 01:55:35 14° 225° (SW) 1,960 ? -34.8°
